STARLINK-37842, 69487

Orbit data source: Space-Track

STARLINK-37842, 69487 is a payload satellite owned by SpaceX/Seattle (US) in SSO that was launched on Thu, 11 Jun 2026 UTC via an FALCON 9 launch vehicle from the Air Force Western Test Range (AFWTR). Payload-class satellites include a variety of spacecraft equipped with specific instruments for various scientific and technological missions. These include communications satellites like Starlink; space stations such as the ISS; scientific satellites like the Hubble; Earth observation satellites from companies like Planet Labs, Umbra, and HawkEye 360; GPS; miniature CubeSats for education and research; and military/defense satellites.

Loading next visibility...
Identifier
69487, 2026-131K
Orbit
SSO
Country
Flag of USUS
Related business
Manufacturer
SpaceX/Seattle
Mission
Operational spacecraft
Bus & Motor
STARLINK V2MO, Unknown motor
Mass
575 kg wet, ~530 kg dry
Launch date (UTC)
2026-06-11 (1 week ago)
Launch vehicle
FALCON 9
Launch site
Air Force Western Test Range (AFWTR)
Object type
Payload
Rocket body
Debris
Shape & HBR
Unknown
Radar Cross Section
RCS unknown

Expand to show TLE details & history
Last TLE update: 10 hours ago

TLE from 10 hours ago
0 STARLINK-37842
1 69487U 26131K   26171.41668980 -.01089440  35109-3 -34065-2 0  9995
2 69487  97.2834 191.8602 0000976  89.6505 220.0904 15.91502207  2530
Epoch: 2026-06-20T10:00Z
TLE epoch observation values (Epoch: 2026-06-20T10:00:01.998Z)
Latitude
-49.97964°
Longitude
141.9253°
Altitude
318.063 km
Speed
7.715 km/s
True Right ascension
13h 22m 15s
True Declination
-49° 47' 57"
Sunlit
Object was in full shadow at epoch
Visualization orbit readout
Latitude
Unknown
Longitude
Unknown
Altitude
Unknown
Speed
Unknown
Apparent Right ascension
Unknown
Apparent Declination
Unknown
Sunlit
N/A
Visualization observer readout
Local Sidereal Time
07:12:27
Azimuth
Unknown
Elevation
Unknown
Doppler factor
Unknown
Orbital elements
Apogee altitude
295.596 km
Perigee altitude
294.293 km
Semi-major axis
6,673.081 km
Eccentricity
0.0001
Inclination
97.2834°
RAAN
191.8602°
Arg. of periapsis
89.6505°
True anomaly
220.0832°
Mean anomaly
220.0904°
Eccentric anomaly
220.0868°
Mean motion
3.98156 °/min
Orbital period
90.42 mins
BSTAR
-0.0034065
Loading maneuver chart data...
Computing Atmospheric mass density...
Loading historical data...
Loading historical data...
Loading historical data...
Loading historical data...
Loading historical data...
Loading historical data...
Loading historical data...

Documentation

Showing up to 5 results
|